Aérodrome :
LOGIN :

S'inscrire | Disclaimer

   EN    FR    IT 

 










Légende :    VFR   VFR Marginal   IFR   IFR Intensif   IFR Très Intensif
Visi : 
Plafond : 
>= 8 km
>= 3000ft
5 à 8 km
1000 à 3000 ft
1500m à 5 km
500 à 1000 ft
800 à 1500m
200 à 500 ft
< 800m
< 200 ft
Symboles :   Orages  Brouillard  Fortes neiges  Fortes précipitations  Vent > 20 kt
SIGMETs :   Divers  Orages  Givrage  Turbulence  Onde Orograph.  Cendres Volcan.






- Altitude de l'aérodrome : 183 ft


LIBA - Amendola Foggia

DERNIER METAR :
  • 080155Z 30007KT CAVOK 18/14 Q1015 RMK SKC VIS MIN 9999 WIND THR11 30009KT WIND THR29 /////KT BLU

METARs EXPIRÉS :
  • 080055Z 27008KT CAVOK 19/14 Q1015
  • 072355Z 27009KT CAVOK 19/14 Q1015 RMK SKC VIS MIN 9999 WIND THR11 27008KT WIND THR29 /////KT BLU

TAF TAF LIBA
Valide du 08 à 03h jusqu'au 08 à 12h UTC


080200Z 0803/0812 31008KT CAVOK



MET'MAP, la Météo Aéronautique d'un coup d'oeil ! - Copyright ORBIFLY Décembre 2007 - Disclaimer

ORBIFLY MET'MAP TEAM :

Programmation & Développement : Alexandra Zaïnal
Sur une idée originale de : Baudouin d'Aumeries
Assistance à la programmation : Marc-Olivier Méhu
Soutien technique & logistique : Manuel Goepfert

Contact : metmap@orbifly.com




SOURCES & CREDITS :

   NOAA